This demonstration page uses our WeatherBlox Daily Observations layout. Learn more.

Left ArrowRight Arrow

39.95238, -75.16362

Hourly Observations for May 17, 2015

Temp ( °F °C ) Dew Point ( °F °C ) Humidity (%) Winds ( mph kmh ) Pressure ( in mb ) Visibility ( mi km ) Precip ( " mm )
12:54 am 00:54 Cloudy 70 21.1 66 18.9 87 87 SSW 6 9 30.15 1021 10 16 0.00 0.00
1:54 am 01:54 Cloudy 70 21.1 66 18.9 87 87 SW 6 9 30.14 1021 10 16 0.00 0.00
2:54 am 02:54 Cloudy 69 20.6 66 18.9 90 90 WSW 6 9 30.13 1020 10 16 0.00 0.00
3:07 am 03:07 Cloudy 70 21.1 66 18.9 87 87 W 5 7 30.15 1021 9 14 0.00 0.00
3:54 am 03:54 Cloudy 70 21.1 65 18.3 84 84 SW 6 9 30.14 1021 9 14 0.00 0.00
4:54 am 04:54 Cloudy 69 20.6 66 18.9 90 90 Calm 30.12 1020 8 13 0.01 0.25
5:54 am 05:54 Mostly Cloudy 69 20.6 66 18.9 90 90 Calm 30.14 1021 8 13 0.00 0.03
6:54 am 06:54 Mostly Cloudy 70 21.1 67 19.4 90 90 SSW 5 7 30.16 1021 8 13 0.00 0.00
7:54 am 07:54 Mostly Cloudy 72 22.2 66 18.9 82 82 W 6 9 30.17 1022 8 13 0.00 0.00
8:54 am 08:54 Mostly Cloudy 73 22.8 66 18.9 79 79 SW 8 13 30.17 1022 9 14 0.00 0.00
9:54 am 09:54 Mostly Cloudy 74 23.3 67 19.4 79 79 WSW 8 13 30.17 1022 8 13 0.00 0.00
10:54 am 10:54 Mostly Cloudy 79 26.1 68 20 69 69 SW 8 13 30.17 1022 9 14 0.00 0.00
11:46 am 11:46 Mostly Cloudy 81 27 66 19 62 62 SSW 12 19 30.18 1022 10 16 0.00 0.00
11:54 am 11:54 Mostly Cloudy 81 27.2 67 19.4 62 62 SSW 12 19 30.16 1022 10 16 0.00 0.00
12:54 pm 12:54 Mostly Cloudy 82 27.8 66 18.9 58 58 WSW 9 15 30.15 1021 10 16 0.00 0.00
1:54 pm 13:54 Mostly Cloudy 81 27.2 65 18.3 58 58 WSW 15 24 30.14 1021 10 16 0.00 0.00
2:54 pm 14:54 Mostly Cloudy 82 27.8 65 18.3 56 56 W 9 15 30.13 1020 10 16 0.00 0.03
3:54 pm 15:54 Mostly Cloudy 84 28.9 65 18.3 53 53 WNW 10 17 30.12 1020 10 16 0.00 0.00
4:54 pm 16:54 Mostly Cloudy 83 28.3 64 17.8 53 53 WNW 10 17 30.11 1020 10 16 0.00 0.00
5:54 pm 17:54 Mostly Cloudy 81 27.2 65 18.3 58 58 WNW 9 15 30.10 1019 10 16 0.00 0.00
6:54 pm 18:54 Mostly Cloudy 81 27.2 65 18.3 58 58 WSW 5 7 30.10 1019 10 16 0.00 0.00
7:54 pm 19:54 Mostly Cloudy 81 27.2 64 17.8 57 57 WSW 10 17 30.10 1019 10 16 0.00 0.00
8:54 pm 20:54 Mostly Cloudy 80 26.7 65 18.3 60 60 WNW 5 7 30.11 1020 10 16 0.00 0.00
9:54 pm 21:54 Partly Cloudy 77 25 65 18.3 66 66 WSW 5 7 30.14 1021 10 16 0.00 0.00
10:54 pm 22:54 Mostly Clear 75 23.9 66 18.9 74 74 WSW 7 11 30.14 1021 10 16 0.00 0.00
11:54 pm 23:54 Mostly Clear 73 22.8 66 18.9 79 79 WSW 5 7 30.13 1020 10 16 0.00 0.00

Powered by AerisWeather